Lapse_Rate
-5.1 -5.9 -6.6 -5.4 -3.3 -1.4 -0.5 -0.0 0.4 0.7 0.9 0.8 0.9 1.0 1.1 1.1 0.8 1.6 1.4 1.1 0.8 0.7 0.8 1.3 1.3 1.7 1.5 2.0 3.2 6.0 7.7 7.5 6.9 5.5 5.9 5.3 4.9 3.3 2.9 5.2 6.3 5.1 4.1
-4.4 -5.4 -5.1 -5.4 -3.6 -2.2 -0.9 0.0 0.5 0.4 1.0 1.1 1.2 1.5 2.2 2.3 2.1 2.2 2.1 2.6 2.8 2.7 2.4 2.3 2.6 3.6 2.2 2.6 3.6 4.3 6.3 8.5 8.4 7.4 7.9 6.9 5.1 4.4 5.0 3.7 6.3 6.1 5.9
-3.0 -3.1 -3.8 -3.9 -5.4 -3.9 -2.6 -0.9 -0.1 0.5 0.9 1.1 1.8 1.6 2.3 2.5 2.8 3.3 3.7 4.0 4.2 4.2 4.5 4.3 4.4 4.7 4.3 4.1 4.0 5.3 6.0 8.1 8.5 8.7 8.4 8.3 7.3 5.5 3.3 5.3 6.6 6.8 6.4
-3.7 -4.6 -4.8 -5.3 -6.2 -6.2 -5.2 -2.8 -1.1 -0.1 -0.0 0.8 1.6 2.0 2.5 3.4 3.6 3.5 4.2 5.5 7.0 7.8 8.2 7.5 6.9 6.9 5.5 5.1 5.9 6.0 6.5 8.3 8.7 8.3 8.1 8.0 7.4 7.6 6.5 5.3 5.8 6.7 6.6
-3.2 -4.0 -3.6 -4.2 -6.1 -5.8 -4.6 -3.2 -2.2 -0.8 0.0 0.5 1.4 2.1 2.3 3.3 3.8 4.5 6.6 7.7 7.7 7.8 8.0 8.1 8.2 7.8 8.0 8.5 8.4 7.6 8.6 8.5 8.5 8.8 8.5 8.4 8.1 8.3 7.4 5.2 5.7 7.6 7.0
-3.9 -2.8 -3.9 -5.7 -7.1 -6.1 -4.8 -4.7 -3.5 -1.2 -0.8 -0.3 0.8 1.3 1.6 3.2 4.6 6.7 8.6 7.9 7.9 7.8 7.7 8.2 8.4 8.7 8.7 8.4 8.8 9.4 8.8 8.6 8.3 8.5 8.6 7.9 7.9 8.0 8.5 6.8 6.5 7.5 6.4
-3.8 -3.8 -2.1 -3.7 -3.3 -4.8 -5.8 -6.6 -3.6 -1.8 -2.4 -1.0 0.0 1.2 1.8 2.1 4.1 5.9 8.9 7.9 7.6 7.9 8.0 7.7 8.2 9.3 9.2 9.1 8.9 8.5 9.1 9.3 9.1 8.7 8.5 8.5 8.5 8.3 8.8 7.4 6.6 7.1 7.0
-3.0 -2.8 -3.7 -3.2 -2.6 -3.1 -4.9 -4.0 -4.4 -3.6 -1.9 -0.1 0.8 1.0 1.3 1.6 4.6 6.4 8.8 8.0 7.7 8.0 7.7 8.1 8.7 8.6 8.7 8.5 7.7 8.4 8.7 9.0 8.9 9.1 8.8 9.4 9.2 9.1 9.1 7.5 6.2 6.1 7.1
-1.5 -2.2 -1.6 -2.8 -3.4 -2.6 -1.4 -1.8 -2.3 -3.3 -1.3 -0.6 0.5 0.9 1.3 1.0 4.8 6.5 8.6 7.6 7.8 7.9 8.2 8.5 8.8 8.6 8.8 9.0 7.9 7.4 7.5 8.3 9.4 9.2 9.4 9.5 7.9 8.7 9.0 8.6 8.4 6.0 7.0
0.7 0.0 -0.4 -1.2 -1.7 -2.0 -1.5 -1.4 -2.0 -3.3 -1.3 1.0 1.1 1.1 2.6 3.2 4.0 8.5 8.9 7.2 7.3 7.5 7.4 8.4 9.0 8.9 8.2 8.1 7.7 7.1 7.1 7.4 8.4 8.8 8.6 8.8 8.9 8.2 9.0 8.6 7.7 7.7 7.4
2.2 2.4 1.8 1.1 0.0 -1.0 -2.1 -4.8 -3.1 -1.1 0.7 1.4 1.1 1.9 1.9 3.4 3.6 9.1 9.4 8.0 7.5 7.3 7.4 7.5 7.2 7.8 9.0 8.8 7.7 6.6 6.7 8.1 8.6 8.7 8.7 8.3 8.6 8.2 8.6 7.4 7.1 7.9 5.8
3.0 3.0 3.0 2.7 3.0 2.5 -2.5 -2.1 -1.6 -0.4 0.8 2.3 2.2 4.2 4.9 3.9 6.5 8.6 9.2 9.0 8.3 7.0 6.7 6.6 6.5 8.6 5.4 4.6 5.7 6.6 7.5 8.0 8.3 8.4 8.2 7.9 8.1 8.2 8.1 7.1 5.1 5.5 5.7
3.1 3.3 3.0 3.5 4.5 3.9 0.1 1.1 0.7 1.6 1.3 3.3 3.9 6.4 5.9 5.8 6.2 7.8 7.4 8.2 5.5 6.3 5.6 6.7 8.2 8.1 4.3 6.3 6.0 7.4 7.7 7.7 7.1 7.1 7.7 8.4 8.3 8.8 8.5 7.9 6.9 5.5 7.8
3.7 3.5 3.3 3.7 3.5 3.1 5.0 4.5 1.8 2.9 3.3 5.7 5.7 6.9 6.1 6.8 7.2 8.0 7.6 6.0 4.7 4.4 3.2 3.8 7.0 6.3 7.2 3.1 1.2 3.7 6.4 7.1 7.1 7.7 8.0 7.6 7.9 8.2 8.7 8.2 8.7 8.5 8.0
4.3 4.4 4.5 4.9 4.3 3.9 4.8 4.0 2.7 3.7 5.6 6.9 4.4 7.2 7.4 7.4 8.2 9.1 8.9 8.3 6.9 6.0 2.6 2.3 3.6 4.8 5.7 5.2 4.1 3.0 1.4 1.7 3.5 2.7 6.9 7.6 7.7 8.0 8.6 8.3 8.4 7.6 7.8
5.3 5.4 5.3 5.1 3.9 4.4 4.5 5.1 7.0 8.0 8.1 9.2 9.5 9.0 8.9 9.4 9.5 8.9 9.2 9.2 7.9 5.3 2.6 2.3 4.0 4.8 6.1 6.6 6.6 5.8 3.5 2.3 1.1 0.8 0.6 1.5 0.9 1.6 4.9 4.4 7.7 6.9 6.2
6.1 5.9 5.8 5.5 4.0 3.4 4.2 5.1 5.1 5.7 7.3 7.2 8.5 8.6 9.5 9.5 9.4 6.5 5.8 5.8 5.8 3.5 3.2 4.1 4.3 5.4 5.8 6.0 6.3 6.1 4.7 3.9 3.1 1.2 -1.1 -1.8 -1.6 -1.8 -0.4 -1.0 -1.4 1.3 5.0
6.1 6.7 6.1 5.8 5.2 4.0 4.5 5.2 5.4 4.9 4.7 4.6 5.4 6.9 8.3 8.6 7.1 6.4 5.4 3.6 3.2 3.1 3.5 3.7 4.4 4.5 4.9 6.2 5.8 4.6 4.6 3.5 2.0 2.4 1.5 0.2 -0.3 -0.4 -2.8 -3.2 -2.8 -2.3 -1.6
5.0 4.7 5.1 5.8 6.2 5.8 5.4 5.2 5.2 5.1 4.5 4.1 4.3 5.3 5.9 6.5 6.0 5.4 5.0 3.1 3.5 3.3 3.3 3.5 3.5 4.3 4.4 4.9 5.5 5.4 4.5 4.2 3.5 2.7 2.2 1.8 1.5 1.2 -0.6 -1.4 -1.2 -0.1 -1.0
5.0 5.9 5.9 6.3 6.8 5.7 5.4 5.2 4.8 4.6 4.2 4.1 4.8 6.1 4.8 4.4 3.7 3.4 3.7 3.8 3.5 3.6 3.2 2.9 3.0 3.3 3.8 3.9 4.7 5.1 5.1 4.7 4.0 3.4 3.2 2.5 2.0 1.5 0.9 0.6 -0.2 -0.2 -0.5
5.2 5.4 6.8 6.3 5.9 5.7 5.7 5.0 4.5 4.4 4.0 3.7 3.4 7.7 7.1 3.4 3.8 3.9 3.4 3.4 3.1 2.8 2.9 2.7 2.3 1.9 2.2 2.8 3.3 4.5 5.3 5.2 5.5 5.1 3.7 3.2 2.4 1.8 1.4 1.2 1.1 0.5 1.8
5.1 5.5 6.1 6.0 5.6 5.7 5.6 5.3 4.3 3.7 3.1 2.7 2.1 4.0 6.0 2.6 2.6 2.7 3.1 2.8 2.5 2.3 2.0 2.1 1.8 1.7 1.2 1.3 1.6 2.7 4.8 5.0 4.4 4.9 5.0 4.7 3.9 3.3 2.7 2.0 1.6 1.3 1.5
5.1 5.8 5.7 5.7 6.2 7.5 6.5 5.8 5.3 4.4 3.3 2.8 2.2 2.4 2.2 1.6 1.7 1.5 1.5 1.5 1.3 1.1 1.1 1.2 0.7 0.2 0.2 0.3 0.9 1.7 3.2 5.6 5.5 4.7 4.4 4.1 4.1 3.2 3.1 2.9 2.3 1.8 1.9
4.7 5.1 5.3 5.5 6.2 6.0 5.9 5.7 5.9 6.1 4.7 3.4 2.5 2.4 0.8 0.4 0.8 0.8 0.4 0.2 0.3 0.3 -0.1 -0.1 -0.3 -1.2 -1.4 -0.9 -0.1 1.0 3.0 7.1 5.5 4.9 4.4 3.7 3.3 3.2 2.8 2.5 2.2 1.9 1.9
4.6 5.1 5.4 5.7 6.6 5.6 6.2 4.9 4.6 4.5 4.5 4.2 3.7 2.5 1.3 1.1 0.4 0.3 -0.2 -0.5 -0.7 -0.6 -0.6 -1.2 -1.7 -1.9 -1.8 -1.9 -1.2 2.7 8.4 9.2 7.6 5.7 4.4 3.6 3.1 2.7 2.3 2.3 2.0 2.1 1.8
4.6 5.0 5.3 5.7 5.6 5.4 5.3 4.8 4.2 3.6 3.4 3.6 3.1 2.3 1.8 0.6 0.3 0.0 -0.5 -1.0 -1.3 -1.0 -1.5 -0.9 -1.5 -2.0 -2.0 -1.4 0.4 5.9 7.8 9.2 9.0 8.4 4.5 2.6 2.9 3.0 3.3 2.2 1.8 2.6 2.4
Wind_Speed
5 4 3 3 3 4 4 4 5 6 7 8 8 9 10 10 8 9 11 12 12 12 12 12 13 12 9 9 9 11 12 12 16 14 12 13 17 11 14 18 24 24 25
4 4 4 3 3 4 5 6 7 7 9 8 8 10 11 11 10 11 12 12 13 14 14 15 15 11 15 14 11 14 14 15 15 22 14 13 15 15 14 15 13 22 23
4 4 3 4 3 5 5 5 6 7 8 9 9 10 10 10 11 13 13 14 15 15 16 17 17 16 17 13 14 13 14 14 16 16 16 11 13 11 12 16 15 17 22
5 4 4 4 4 4 5 5 6 6 8 9 9 10 10 12 13 13 14 14 16 16 17 18 20 19 21 19 17 18 16 15 16 17 16 14 13 14 11 12 14 14 14
5 5 6 5 3 4 5 5 6 7 7 7 9 9 10 11 10 11 13 15 16 17 18 19 20 24 35 30 15 19 19 17 16 17 16 16 15 13 14 14 14 15 16
6 6 5 4 3 5 5 5 6 7 6 6 8 9 10 9 18 22 21 15 17 17 18 19 20 29 31 39 41 42 29 20 23 17 17 18 20 16 14 13 15 16 10
6 5 5 4 4 4 4 4 6 6 4 7 8 8 10 11 20 23 25 15 15 17 19 20 21 19 29 26 35 42 42 43 39 23 24 22 21 20 18 17 18 18 15
6 6 5 4 4 3 3 5 5 4 5 6 7 8 9 9 20 24 26 17 16 19 21 21 23 25 25 26 26 29 30 31 32 25 27 21 23 17 17 16 18 17 16
7 6 6 5 4 3 5 5 4 3 4 4 6 8 9 11 22 24 23 15 16 20 19 21 22 24 32 39 29 30 29 27 32 42 42 37 34 26 21 12 13 16 15
8 7 6 5 5 5 5 5 3 3 5 5 8 7 12 12 21 25 23 11 16 15 19 19 30 29 35 37 26 27 28 26 24 24 26 30 36 29 32 20 15 17 17
6 6 6 6 6 6 4 2 3 4 5 6 7 8 8 11 14 27 28 15 13 15 15 14 14 35 40 42 41 21 28 23 27 20 19 20 21 23 19 17 17 16 19
6 6 6 6 4 3 4 3 3 3 5 7 7 7 6 10 19 24 30 29 28 15 14 14 19 40 50 33 24 24 31 28 14 14 15 17 19 18 18 17 23 19 18
6 7 6 5 4 4 3 3 3 4 3 5 4 6 8 9 10 26 28 32 29 16 14 25 35 37 38 5 23 27 30 15 13 13 15 17 16 16 17 18 19 22 25
7 6 5 5 4 4 3 2 1 3 4 5 5 7 6 9 10 12 11 13 23 17 23 17 23 25 28 24 16 2 11 12 13 14 14 15 13 14 15 17 17 17 17
7 6 5 4 4 3 3 2 2 3 3 4 3 5 7 9 11 20 18 13 13 17 16 12 14 16 16 15 12 11 9 7 1 4 13 13 16 16 17 15 16 16 20
7 5 4 3 3 3 1 2 4 5 7 10 15 11 7 17 23 24 23 23 27 27 11 12 13 13 14 14 12 10 10 12 8 6 5 5 5 2 5 7 17 17 15
6 6 3 5 3 3 2 0 2 4 7 10 13 14 17 17 21 23 23 21 24 19 11 12 12 12 12 13 12 12 13 11 11 10 10 10 8 8 6 5 6 2 9
6 11 4 3 3 3 2 1 1 2 3 3 8 13 15 16 19 22 23 17 10 14 10 11 12 12 12 12 13 14 13 13 13 13 13 12 10 6 9 12 10 9 8
5 2 4 3 2 4 3 2 2 2 3 2 3 8 13 15 17 19 21 9 9 10 10 10 10 11 12 13 12 13 14 14 14 13 13 12 11 9 13 12 12 20 16
5 9 7 3 3 4 3 2 2 2 2 3 3 3 4 6 6 8 8 8 8 8 8 10 10 10 10 11 12 12 14 14 13 12 13 12 11 12 13 13 12 11 11
3 1 9 3 3 3 4 3 2 2 3 3 2 6 13 5 5 5 6 7 7 7 8 8 9 9 9 9 10 11 12 12 12 12 12 12 12 13 12 12 11 10 10
3 2 4 4 3 4 4 3 2 2 2 3 2 4 11 3 3 4 4 5 5 6 6 6 7 7 8 8 9 10 11 12 11 11 10 10 10 10 9 10 10 11 9
2 3 4 4 3 6 5 3 3 3 2 2 3 4 4 3 3 4 4 4 4 4 5 5 6 7 8 9 11 7 7 8 8 8 9 9 10 9 10 10 11 10 9
3 3 3 3 3 3 3 3 3 6 4 2 3 3 4 3 3 4 4 3 4 4 7 6 5 7 8 10 13 15 12 11 9 7 9 9 9 12 10 9 10 11 8
3 3 3 3 3 4 4 3 3 3 2 2 2 2 2 4 4 6 6 5 5 5 5 7 9 11 12 13 14 15 20 23 14 14 10 8 9 10 9 8 9 8 9
3 3 3 3 3 3 3 3 2 2 1 1 1 1 1 2 2 3 4 5 6 6 7 7 9 13 16 16 19 24 26 23 19 19 13 6 7 7 6 7 10 6 7
Wind_Direction
186 182 194 235 261 283 277 281 287 293 288 285 284 286 286 283 278 277 276 273 269 268 265 261 259 257 251 247 245 247 239 235 248 259 260 272 275 281 287 250 221 214 206
183 176 204 224 262 275 280 289 296 287 288 286 277 275 277 278 273 269 266 267 266 264 263 259 259 256 250 248 246 245 243 247 241 257 253 256 258 258 262 291 235 218 217
175 187 211 244 253 265 273 285 290 288 283 281 276 269 272 277 274 268 268 268 264 260 258 258 259 253 254 248 243 244 245 244 249 254 254 248 256 262 261 262 265 222 217
184 186 219 242 240 252 274 281 281 282 276 276 275 274 271 277 273 270 268 268 266 261 258 252 251 248 250 248 243 242 241 245 244 244 250 250 249 250 251 252 269 225 218
186 192 224 236 238 267 275 275 277 275 275 274 280 274 269 270 271 273 270 269 268 269 264 259 255 247 245 243 244 243 237 239 240 243 243 239 235 231 230 235 241 243 221
191 209 215 221 238 253 271 276 285 283 277 275 279 274 276 278 282 285 286 281 277 273 272 268 264 260 256 250 245 243 235 234 238 237 236 237 237 235 237 237 232 245 211
194 206 210 211 237 257 271 294 288 290 281 285 281 275 279 284 294 290 289 288 284 279 275 272 266 258 257 252 247 240 236 233 234 238 236 231 236 236 231 232 233 254 214
201 203 207 207 226 256 280 275 278 266 277 282 283 278 285 295 307 301 298 295 287 284 276 275 272 271 262 257 248 239 235 231 227 229 237 241 234 228 231 234 238 255 230
211 210 207 195 212 241 272 276 275 271 282 268 278 288 299 300 306 309 307 299 292 288 288 282 277 273 269 263 254 243 236 230 226 224 231 236 248 238 233 243 240 233 243
211 209 200 191 202 224 250 269 256 242 264 289 298 299 301 305 305 317 316 311 303 304 301 293 289 282 278 278 259 246 228 222 217 222 223 230 237 246 236 228 241 232 255
188 189 186 188 200 213 236 225 262 302 311 312 308 304 289 298 314 325 327 324 318 318 312 307 302 297 291 281 274 241 216 209 212 217 221 223 225 228 234 223 237 236 238
181 179 180 186 205 193 205 271 299 318 323 313 309 310 314 313 324 330 334 335 336 326 320 320 319 317 306 260 245 208 207 204 205 213 217 224 223 223 221 223 230 235 241
175 177 177 178 196 211 213 269 320 322 308 308 303 323 328 329 330 335 338 342 343 341 337 342 339 343 353 258 192 204 203 202 206 211 216 227 221 216 215 217 223 227 239
182 169 169 171 196 227 260 237 237 293 307 307 321 341 333 336 338 343 344 339 348 345 349 345 351 1 3 23 28 288 206 205 211 221 225 222 211 215 220 210 209 215 228
174 162 166 168 171 215 244 244 243 259 278 323 306 345 349 345 353 352 354 353 360 354 353 358 1 9 7 10 16 20 30 37 126 309 231 233 214 214 211 204 206 217 219
163 167 163 153 177 190 215 301 341 348 354 355 359 359 6 359 5 1 4 5 10 8 7 13 6 9 6 8 9 15 28 34 29 19 5 50 59 38 217 226 218 202 193
159 148 170 152 163 179 183 160 13 353 10 12 5 11 14 15 16 12 11 14 13 13 23 14 15 7 4 3 6 14 25 23 28 33 35 33 31 35 54 63 58 115 185
135 172 159 156 159 171 174 132 90 29 1 346 354 18 16 20 22 20 16 10 5 16 20 16 11 4 2 5 10 17 23 26 26 29 33 34 33 32 55 53 50 57 72
146 134 134 139 151 160 136 111 83 61 28 344 319 16 20 17 21 22 14 13 6 9 7 13 11 6 4 5 9 21 20 28 27 30 31 31 31 31 49 48 51 53 52
144 156 158 149 150 132 130 115 85 63 47 10 359 357 32 14 6 8 13 5 6 6 3 4 4 7 10 5 7 17 22 23 24 28 30 30 28 33 42 41 40 46 42
135 161 158 137 142 139 130 114 97 67 44 39 352 0 33 32 9 8 3 5 2 360 1 3 358 359 1 5 10 12 25 28 26 24 24 26 27 33 33 34 35 35 41
128 127 127 138 133 128 124 120 103 76 44 17 351 17 38 26 11 2 10 1 348 351 351 358 1 359 356 358 359 4 12 23 25 27 29 31 32 33 34 36 34 29 24
128 130 128 133 145 156 123 126 119 104 61 22 357 2 11 8 355 354 355 352 343 343 349 357 9 2 0 359 357 357 357 17 17 16 24 28 32 35 34 39 36 33 25
116 122 126 121 117 114 121 128 133 129 117 65 15 2 352 347 348 338 336 338 345 342 347 4 8 3 359 358 356 351 347 23 26 19 27 28 29 31 30 29 28 29 27
95 105 116 120 116 125 118 109 107 98 100 106 90 29 347 344 343 344 343 346 345 350 353 356 358 355 357 348 344 351 10 16 38 31 27 28 31 27 31 30 22 20 23
93 99 97 104 113 115 122 124 115 107 104 100 90 54 332 296 299 312 326 332 335 336 336 347 352 0 357 351 348 12 19 17 18 36 25 23 26 16 28 23 23 24 12